STARLINK-35193, 65889

Orbit data source: Space-Track

STARLINK-35193, 65889 is a payload satellite owned by SpaceX/Seattle (US) in LEO that was launched on Tue, 07 Oct 2025 UTC via an FALCON 9 launch vehicle from the Air Force Eastern Test Range (AFETR). Payload-class satellites include a variety of spacecraft equipped with specific instruments for various scientific and technological missions. These include communications satellites like Starlink; space stations such as the ISS; scientific satellites like the Hubble; Earth observation satellites from companies like Planet Labs, Umbra, and HawkEye 360; GPS; miniature CubeSats for education and research; and military/defense satellites.

Loading next visibility...
Identifier
65889, 2025-224H
Orbit
LEO
Country
Flag of USUS
Related business
Manufacturer
SpaceX/Seattle
Mission
Operational spacecraft
Bus & Motor
STARLINK V2MO, Unknown motor
Mass
575 kg wet, ~530 kg dry
Launch date (UTC)
2025-10-07 (2 months ago)
Launch vehicle
FALCON 9
Launch site
Air Force Eastern Test Range (AFETR)
Object type
Payload
Rocket body
Debris
Shape & HBR
Unknown shape, 17.7 m
Radar Cross Section
RCS unknown

Expand to show TLE details & history
Last TLE update: 1 day ago

TLE from 1 day ago
0 STARLINK-35193
1 65889U 25224H   25338.54642617  .00073897  00000-0  24832-2 0  9992
2 65889  53.1607  93.5412 0001363  60.2031 299.9105 15.30190253 10284
Epoch: 2025-12-04T13:06Z
TLE epoch observation values (Epoch: 2025-12-04T13:06:51.221Z)
Latitude
-0.00002°
Longitude
-176.77355°
Altitude
475.678 km
Speed
7.629 km/s
True Right ascension
06h 14m 09s
True Declination
0° 00' 00"
Sunlit
Object was in full shadow at epoch
Visualization orbit readout
Latitude
Unknown
Longitude
Unknown
Altitude
Unknown
Speed
Unknown
Apparent Right ascension
Unknown
Apparent Declination
Unknown
Sunlit
N/A
Visualization observer readout
Local Sidereal Time
13:01:13
Azimuth
Unknown
Elevation
Unknown
Doppler factor
Unknown
Orbital elements
Apogee altitude
476.435 km
Perigee altitude
474.566 km
Semi-major axis
6,853.637 km
Eccentricity
0.00014
Inclination
53.1607°
RAAN
93.5412°
Arg. of periapsis
60.2031°
True anomaly
299.89696°
Mean anomaly
299.9105°
Eccentric anomaly
299.90373°
Mean motion
3.82526 °/min
Orbital period
94.11 mins
BSTAR
0.0024832
Loading maneuver chart data...
Computing Atmospheric mass density...
Loading historical data...
Loading historical data...
Loading historical data...
Loading historical data...
Loading historical data...
Loading historical data...
Loading historical data...

Documentation

Showing up to 5 results
|